CZ-6A DEB

Satellite information

Favourite Embed

Satellite Type and Status

DEBRISIN ORBIT

Key statistics

Satellite CZ-6A DEB at a glance.

Uptime

970

Days in orbit

Revolutions

≈ 14.1

Per day

Orbit

SSO

Sun Synchronous Orbit

Inclination

98.8

Latest

Satellite identification and parameters

Extended collection of information and parameters for CZ-6A DEB.

Object identification

Identified? True

Debris? True

Object name: CZ-6A DEB

International designator: 2022-151SY

Object number (NORAD): 54959

Object ID (CCSDS): 54959

Country: PEOPLES REPUBLIC OF CHINA (PRC)

Current information (Y/N): Y

RCS size: SMALL

Orbital parameters

Period: 102.434 minutes

Inclination: 98.8357 deg

SMA: 7251.969 km

Apoapsis: 926.733 km

Periapsis: 820.934 km

RAAN: 180.6676 deg

Eccentricy: 0.0072945

Argument of periapsis: 261.1941 deg

Mean anomaly: 98.0961 deg

Mean motion: 14.05784923 rev/day

Mean motion (dot): 0.000006 rev/day2

B* drag term: 0.00038481 1/REarth

Two-line elements (TLE)

Creation date: July 8, 2025, 2:27 a.m.

Reference frame: TEME

Reference center: EARTH

Epoch: July 7, 2025, 10:21 p.m. UTC

TLE line 0: 0 CZ-6A DEB

TLE line 1: 1 54959U 22151SY 25188.93130163 .00000600 00000-0 38481-3 0 9996

TLE line 2: 2 54959 98.8357 180.6676 0072945 261.1941 98.0961 14.05784923135734

Live tracking on map

Real-time ground track for satellite CZ-6A DEB.

In-orbit conjunctions

A list of the most updated potential collisions computed for object CZ-6A DEB.

Target Orbit TCA Probability of collision Miss distance Type
CZ-6A DEB LEO 2025-05-06 11:54:55 0.0001020223 361.0 (m) DEBRIS
COSMOS 2251 DEB LEO 2025-01-21 21:42:47 0.0001000295 527.0 (m) DEBRIS

Associated space launch

Chinese satellite reported for atmospheric/ocean/environmental/spatial parameter research purposes, details TBD.

CZ-6A DEB was lifted into orbit during the mission ‘Long March 6A | Yunhai 3’, on board a Long March 6A space rocket.

The launch took place on Nov. 11, 2022, 10:52 p.m. from Launch Complex 9A.

For more information about the launch, click the button.

Launch to space Long March 6A | Yunhai 3
Long March 6A | Yunhai 3

Agency: N/A

Status: Launch Successful

Launch date: Nov. 11, 2022, 10:52 p.m. UTC

Rocket: Long March 6A

Launch pad: Launch Complex 9A

Location: Taiyuan Satellite Launch Center, People's Republic of China

...

Latest news about this satellite

There are no fresh news available about this satellite. Check back as we update our databases every day.


Newsletter sign-up

Weekly statistics, charts and insights to help you stay on top of the space industry.